User: anonymous   Login
Location: NJAA Observatory
(40.6819°N, 74.8979°W)
Time: 07:34:06
(UTC-05:00)
Language:

Cosmos 1939 Rocket - Orbit

View from above orbital plane
View from above orbital plane
View from above satellite
View from above satellite

Ground track
Ground track

The orbit data is extracted from the following two-line orbital elements,

1 19046U 88032B   17054.22532307  .00000773  00000-0  62475-4 0  9997
2 19046  97.5430 104.3428 0038998 356.1695   3.9225 15.02127715555539
Epoch (UTC): 23 February 2017 05:24:27
Eccentricity: 0.0038998
inclination: 97.5430°
perigee height: 533 km
apogee height: 587 km
right ascension of ascending node: 104.3428°
argument of perigee: 356.1695°
revolutions per day: 15.02127715
mean anomaly at epoch: 3.9225°
orbit number at epoch: 55553

The dashed part of the orbit path shows where the satellite is in the earth's shadow,  

DLR